OE3MAA Weather Reports


Display with metric or nautical units.
time (UTC)temp
F
wind
direction
speed
MPH
gust
MPH
rain 1hr
in
rain 24hr
in
rain mn
in
humidity
%
barometer
mb
20260503034036 39 23 1.0 2.0 0.00 0.00 0.00 85 1017.6
20260503033015 40 0.0 0.0 0.00 0.00 0.00 85 1017.6
20260503032015 40 23 1.0 2.0 0.00 0.00 0.00 85 1017.6
20260503031015 40 23 1.0 2.0 0.00 0.00 0.00 84 1017.4
20260503030035 41 0.0 2.0 0.00 0.00 0.00 84 1017.4
20260503025037 41 23 2.0 2.0 0.00 0.00 0.00 84 1017.4
20260503024017 41 23 2.0 3.0 0.00 0.00 0.00 85 1017.6
20260503022015 39 23 2.0 3.0 0.00 0.00 0.00 86 1017.5
20260503021016 39 113 1.0 4.0 0.00 0.00 0.00 86 1017.4
20260503020017 39 338 2.0 4.0 0.00 0.00 0.00 86 1017.2
20260503015015 39 338 1.0 2.0 0.00 0.00 0.00 85 1017.1
20260503014035 39 0.0 0.0 0.00 0.00 0.00 85 1017.1
20260503013015 39 338 1.0 2.0 0.00 0.00 0.00 85 1017.1
20260503012017 39 338 2.0 2.0 0.00 0.00 0.00 85 1017.2
20260503011015 39 338 2.0 3.0 0.00 0.00 0.00 86 1017.2
20260503010016 39 338 2.0 3.0 0.00 0.00 0.00 85 1017.2
20260503005015 39 338 1.0 2.0 0.00 0.00 0.00 85 1017.2
20260503004015 39 0.0 1.0 0.00 0.00 0.00 85 1017.1
20260503003016 39 338 1.0 2.0 0.00 0.00 0.00 84 1017.2
20260503002036 40 0.0 0.0 0.00 0.00 0.00 84 1017.3
20260503000015 40 338 1.0 2.0 0.00 0.00 0.00 84 1017.4
20260502235015 40 338 2.0 3.0 0.00 0.00 0.00 84 1017.5
20260502234015 40 0.0 1.0 0.00 0.00 0.00 83 1017.6
20260502233015 41 0.0 0.0 0.00 0.00 0.00 83 1017.6
20260502232037 41 0.0 1.0 0.00 0.00 0.00 82 1017.7
20260502231057 41 338 1.0 2.0 0.00 0.00 0.00 82 1017.7
20260502230015 42 338 1.0 2.0 0.00 0.00 0.00 82 1017.8
20260502225036 42 0.0 0.0 0.00 0.00 0.00 81 1017.8
20260502224016 43 0.0 0.0 0.00 0.00 0.00 81 1017.9
20260502223016 43 0.0 0.0 0.00 0.00 0.00 80 1018.0
20260502222015 43 338 1.0 3.0 0.00 0.00 0.00 80 1017.9
20260502221037 43 338 1.0 3.0 0.00 0.00 0.00 79 1018.0
20260502220037 43 338 1.0 2.0 0.00 0.00 0.00 78 1018.1
20260502215017 44 338 1.0 2.0 0.00 0.00 0.00 78 1018.0
20260502214017 45 0.0 1.0 0.00 0.00 0.00 77 1018.0
20260502213019 45 338 1.0 2.0 0.00 0.00 0.00 75 1018.0
20260502212037 46 0.0 1.0 0.00 0.00 0.00 74 1018.0
20260502211016 46 338 1.0 3.0 0.00 0.00 0.00 73 1018.1
20260502210015 47 338 2.0 3.0 0.00 0.00 0.00 73 1018.1
20260502205015 47 338 3.0 4.0 0.00 0.00 0.00 72 1018.2
20260502204015 47 338 3.0 4.0 0.00 0.00 0.00 72 1018.2
20260502203015 48 338 2.0 3.0 0.00 0.00 0.00 71 1018.2
20260502202037 49 338 2.0 3.0 0.00 0.00 0.00 69 1018.2
20260502201036 50 0.0 2.0 0.00 0.00 0.00 67 1018.3
20260502200056 51 338 2.0 3.0 0.00 0.00 0.00 65 1018.4
20260502195015 52 338 2.0 4.0 0.00 0.00 0.00 64 1018.4
20260502194015 52 338 3.0 4.0 0.00 0.00 0.00 63 1018.4
20260502193015 52 338 2.0 3.0 0.00 0.00 0.00 62 1018.3
20260502192015 53 338 3.0 4.0 0.00 0.00 0.00 62 1018.3
20260502191015 53 338 2.0 4.0 0.00 0.00 0.00 61 1018.4
20260502190035 54 0.0 2.0 0.00 0.00 0.00 60 1018.4
20260502185016 54 338 2.0 3.0 0.00 0.00 0.00 58 1018.2
20260502184016 55 338 3.0 3.0 0.00 0.00 0.00 57 1018.1
20260502183015 56 338 2.0 3.0 0.00 0.00 0.00 56 1018.2
20260502182015 57 338 2.0 3.0 0.00 0.00 0.00 55 1018.0
20260502181016 59 338 2.0 3.0 0.00 0.00 0.00 53 1018.0
20260502164015 75 90 1.0 4.0 0.00 0.00 0.00 32 1018.4
20260502163016 74 23 2.0 4.0 0.00 0.00 0.00 30 1018.5
20260502162015 75 45 1.0 3.0 0.00 0.00 0.00 31 1018.6
20260502161015 75 45 2.0 4.0 0.00 0.00 0.00 30 1018.7
20260502152015 76 113 3.0 5.0 0.00 0.00 0.00 29 1019.3
20260502151015 76 90 3.0 5.0 0.00 0.00 0.00 31 1019.4
20260502123035 74 135 3.0 8.0 0.00 0.00 0.00 32 1021.2
20260502121016 73 68 4.0 8.0 0.00 0.00 0.00 33 1021.5
20260502115037 72 45 3.0 7.0 0.00 0.00 0.00 34 1021.7
20260502114015 73 135 4.0 9.0 0.00 0.00 0.00 35 1021.8
20260502113016 72 68 4.0 8.0 0.00 0.00 0.00 37 1022.0
20260502112016 72 23 5.0 11.0 0.00 0.00 0.00 37 1022.2
20260502111015 72 68 5.0 11.0 0.00 0.00 0.00 37 1022.2
20260502110015 72 338 2.0 6.0 0.00 0.00 0.00 39 1022.4
20260502105036 72 68 3.0 5.0 0.00 0.00 0.00 36 1022.6
20260502104015 71 90 2.0 6.0 0.00 0.00 0.00 38 1022.7
20260502103015 70 68 3.0 7.0 0.00 0.00 0.00 38 1022.8
20260502101016 70 45 4.0 8.0 0.00 0.00 0.00 38 1023.1
20260502091017 68 315 3.0 6.0 0.00 0.00 0.00 46 1023.7
20260502071016 56 293 6.0 11.0 0.00 0.00 0.00 63 1024.4
20260502070017 55 315 5.0 8.0 0.00 0.00 0.00 63 1024.4
20260502065016 54 293 6.0 10.0 0.00 0.00 0.00 64 1024.4
20260502064015 54 315 5.0 10.0 0.00 0.00 0.00 64 1024.4
20260502063016 53 293 5.0 9.0 0.00 0.00 0.00 66 1024.4
20260502062037 52 293 7.0 12.0 0.00 0.00 0.00 68 1024.6
20260502061036 51 315 6.0 12.0 0.00 0.00 0.00 67 1024.5
20260502060016 51 293 5.0 8.0 0.00 0.00 0.00 69 1024.5
20260502055016 50 315 4.0 8.0 0.00 0.00 0.00 70 1024.7
20260502054015 49 270 6.0 11.0 0.00 0.00 0.00 70 1024.5
20260502053016 49 293 4.0 8.0 0.00 0.00 0.00 70 1024.6
20260502052016 49 0 2.0 4.0 0.00 0.00 0.00 70 1024.7
20260502051016 48 45 1.0 3.0 0.00 0.00 0.00 71 1024.5
20260502050016 48 338 2.0 4.0 0.00 0.00 0.00 72 1024.5
20260502045016 47 315 2.0 7.0 0.00 0.00 0.00 73 1024.5
20260502044016 46 315 3.0 5.0 0.00 0.00 0.00 75 1024.4
20260502043038 45 180 2.0 6.0 0.00 0.00 0.00 76 1024.3
20260502042016 45 45 1.0 3.0 0.00 0.00 0.00 77 1024.3
20260502041016 44 0.0 1.0 0.00 0.00 0.00 79 1024.3
20260502040016 43 158 1.0 4.0 0.00 0.00 0.00 81 1024.2
20260502035016 42 203 1.0 4.0 0.00 0.00 0.00 80 1024.1